DCCHB ELLX-EDDF

Flight info

Callsign DCCHB
Flight time N/A
Altitude 15000
Route EXCOS Q763 MAPIG DCT LADAT Z818 RINEX Z12 KETEG Z3 VATAK DCT CHA VFR DCT
Aircraft LJ35/M-SGHRWXY/SB1

Departure

Time N/A
Airport Luxembourg-Findel International Airport (ELLX)

Arrival

Time 2026-05-06 20:21
Airport Frankfurt Main Airport (EDDF)
Time Latitude Longitude Altitude Speed Heading
2026-05-06 20:09 50.37300 9.09817 2969 ft 257 kts 69°
2026-05-06 20:09 50.37840 9.12494 2968 ft 258 kts 73°
2026-05-06 20:09 50.38326 9.15163 3216 ft 250 kts 73°
2026-05-06 20:09 50.38666 9.17764 3602 ft 239 kts 89°
2026-05-06 20:10 50.38252 9.20290 3921 ft 238 kts 122°
2026-05-06 20:10 50.37075 9.22028 4247 ft 234 kts 155°
2026-05-06 20:10 50.35566 9.22490 4566 ft 221 kts 188°
2026-05-06 20:10 50.34099 9.21885 4893 ft 219 kts 201°
2026-05-06 20:11 50.32603 9.21047 4960 ft 230 kts 202°
2026-05-06 20:11 50.31167 9.19965 4963 ft 235 kts 216°
2026-05-06 20:11 50.29889 9.18383 4968 ft 233 kts 223°
2026-05-06 20:11 50.28720 9.16628 4836 ft 233 kts 225°
2026-05-06 20:12 50.27540 9.14889 4714 ft 232 kts 224°
2026-05-06 20:12 50.26362 9.13158 4588 ft 233 kts 225°
2026-05-06 20:12 50.25183 9.11411 4455 ft 234 kts 225°
2026-05-06 20:12 50.24003 9.09655 4323 ft 235 kts 225°
2026-05-06 20:13 50.22815 9.07919 4187 ft 232 kts 224°
2026-05-06 20:13 50.21640 9.06182 4044 ft 233 kts 225°
2026-05-06 20:13 50.20472 9.04443 3979 ft 230 kts 225°
2026-05-06 20:13 50.19323 9.02749 3976 ft 226 kts 225°
2026-05-06 20:14 50.18032 9.01378 3968 ft 226 kts 205°
2026-05-06 20:14 50.16511 9.00734 3974 ft 228 kts 192°
2026-05-06 20:14 50.14950 9.00285 3870 ft 230 kts 193°
2026-05-06 20:14 50.13374 8.99801 3731 ft 231 kts 193°
2026-05-06 20:15 50.11786 8.99320 3551 ft 234 kts 193°
2026-05-06 20:15 50.10217 8.98644 3362 ft 233 kts 207°
2026-05-06 20:15 50.08899 8.97246 3231 ft 227 kts 225°
2026-05-06 20:15 50.07945 8.95354 3209 ft 218 kts 242°
2026-05-06 20:16 50.07390 8.93189 3129 ft 214 kts 253°
2026-05-06 20:16 50.06923 8.90977 3070 ft 217 kts 252°
2026-05-06 20:16 50.06435 8.88736 3025 ft 219 kts 252°
2026-05-06 20:16 50.06097 8.86430 2967 ft 220 kts 268°
2026-05-06 20:17 50.06203 8.84053 2927 ft 220 kts 276°
2026-05-06 20:17 50.06330 8.81683 2889 ft 221 kts 275°
2026-05-06 20:17 50.06446 8.79292 2858 ft 222 kts 275°
2026-05-06 20:17 50.06567 8.76918 2782 ft 217 kts 276°
2026-05-06 20:18 50.06678 8.74769 2563 ft 181 kts 276°
2026-05-06 20:18 50.06773 8.72925 2328 ft 163 kts 275°
2026-05-06 20:18 50.06852 8.71238 2109 ft 153 kts 274°
2026-05-06 20:18 50.06628 8.69658 1908 ft 146 kts 250°
2026-05-06 20:19 50.06277 8.68238 1708 ft 138 kts 253°
2026-05-06 20:19 50.05955 8.66814 1524 ft 141 kts 253°
2026-05-06 20:19 50.05612 8.65387 1325 ft 141 kts 251°
2026-05-06 20:19 50.05267 8.63961 1117 ft 140 kts 252°
2026-05-06 20:20 50.05043 8.63025 994 ft 139 kts 252°
2026-05-06 20:20 50.04711 8.61622 797 ft 138 kts 251°
2026-05-06 20:20 50.04393 8.60299 631 ft 137 kts 252°
2026-05-06 20:20 50.04066 8.58910 460 ft 136 kts 252°
2026-05-06 20:21 50.03750 8.57577 358 ft 119 kts 250°
2026-05-06 20:21 50.03536 8.56682 344 ft 61 kts 249°
2026-05-06 20:21 50.03432 8.56251 352 ft 36 kts 249°
2026-05-06 20:21 50.03345 8.55881 339 ft 38 kts 249°
2026-05-06 20:22 50.03217 8.55568 334 ft 31 kts 229°
2026-05-06 20:22 50.03075 8.55371 336 ft 24 kts 223°
2026-05-06 20:22 50.02999 8.55279 335 ft 12 kts 208°
2026-05-06 20:22 50.02927 8.55260 335 ft 11 kts 203°
2026-05-06 20:23 50.02884 8.55151 336 ft 15 kts 249°
2026-05-06 20:23 50.02838 8.54962 335 ft 22 kts 250°
2026-05-06 20:23 50.02781 8.54720 333 ft 26 kts 250°
2026-05-06 20:23 50.02717 8.54448 335 ft 27 kts 250°
2026-05-06 20:24 50.02661 8.54193 332 ft 24 kts 253°
2026-05-06 20:24 50.02606 8.53949 330 ft 24 kts 251°
2026-05-06 20:24 50.02553 8.53720 329 ft 21 kts 250°
2026-05-06 20:24 50.02504 8.53514 330 ft 19 kts 251°
2026-05-06 20:25 50.02458 8.53325 330 ft 19 kts 250°
2026-05-06 20:25 50.02411 8.53129 327 ft 19 kts 250°
2026-05-06 20:25 50.02369 8.52952 329 ft 16 kts 249°
2026-05-06 20:25 50.02323 8.52838 328 ft 10 kts 204°
2026-05-06 20:26 50.02254 8.52830 330 ft 11 kts 181°
2026-05-06 20:26 50.02180 8.52831 330 ft 11 kts 179°
2026-05-06 20:26 50.02146 8.52899 330 ft 9 kts 85°
2026-05-06 20:26 50.02152 8.53011 329 ft 11 kts 85°
2026-05-06 20:27 50.02187 8.53090 329 ft 9 kts 26°
2026-05-06 20:27 50.02232 8.53090 328 ft 6 kts 339°
2026-05-06 20:27 50.02250 8.53080 329 ft 0 kts 339°